[Date Prev][Date Next][Thread Prev][Thread Next] - [Date Index][Thread Index][Author Index]
2 Line ISS Keps 5-22
- Subject: [sarex] 2 Line ISS Keps 5-22
- From: "Dave Larsen PhD" <doc@xxxxxxxxxxx>
- Date: Thu, 22 May 2003 04:32:53 -0700
ISS
1 25544U 98067A 03142.15930057 .00010645 00000-0 13823-3 0 357
2 25544 51.6303 151.0304 0005926 138.2203 350.7357 15.59408230256948
----
Via the sarex mailing list at AMSAT.ORG courtesy of AMSAT-NA.
To unsubscribe, send "unsubscribe sarex" to Majordomo@amsat.org
AMSAT Home